Terug naar catalogus

STARLINK-32712

ActiefCommunicatieVLEO
NORAD 62433·PAYLOAD·🇺🇸 United States

Gelanceerd Dec 29, 2024 vanaf Vandenberg Space Force Base

Loading…

Volgende Passages (komende 24 uur)

TLE

VersSource: CelesTrak SupGP

Epoch: Sep 15, 2026, 03:38 UTC

1 62433C 24251B   26258.15187500  .00019259  00000+0  56916-3 0  2585
2 62433  53.1576 174.4219 0001164 101.5027  52.4916 15.34372319    19

Volg STARLINK-32712 in realtime met AllMySat

Download on the App Store